Time,TemperatureF,DewpointF,PressureIn,WindDirection,WindDirectionDegrees,WindSpeedMPH,WindSpeedGustMPH,Humidity,HourlyPrecipIn,Conditions,Clouds,dailyrainin,SoftwareType,DateUTC
2013-02-25 06:00:00,5.0,-99.9,-100.00,North,-999,-999.0,-999.0,-999,-99.99,,,0.00,,2013-02-25 13:00:00,
2013-02-25 06:53:00,5.0,-99.9,-100.00,North,-999,-999.0,-999.0,-999,-99.99,,,0.00,,2013-02-25 13:53:00,
2013-02-25 07:00:00,6.0,1.0,-100.00,North,-999,-999.0,-999.0,77,-99.99,,,0.00,,2013-02-25 14:00:00,
2013-02-25 07:52:00,6.0,1.0,-100.00,North,-999,-999.0,-999.0,77,-99.99,,,0.00,,2013-02-25 14:52:00,
2013-02-25 09:00:00,16.0,-99.9,-100.00,North,-999,-999.0,-999.0,-999,-99.99,,,0.00,,2013-02-25 16:00:00,
2013-02-25 09:52:00,16.0,-99.9,-100.00,North,-999,-999.0,-999.0,-999,-99.99,,,0.00,,2013-02-25 16:52:00,
2013-02-25 10:00:00,22.0,16.0,-100.00,North,-999,-999.0,-999.0,77,-99.99,,,0.00,,2013-02-25 17:00:00,
2013-02-25 10:52:00,22.0,16.0,-100.00,North,-999,-999.0,-999.0,77,-99.99,,,0.00,,2013-02-25 17:52:00,
2013-02-25 11:00:00,25.0,19.0,-100.00,North,-999,-999.0,-999.0,77,-99.99,,,0.00,,2013-02-25 18:00:00,
2013-02-25 11:52:00,25.0,19.0,-100.00,North,-999,-999.0,-999.0,77,-99.99,,,0.00,,2013-02-25 18:52:00,
2013-02-25 12:00:00,29.0,-99.9,-100.00,North,-999,-999.0,-999.0,-999,-99.99,,,0.00,,2013-02-25 19:00:00,
2013-02-25 12:53:00,29.0,-99.9,-100.00,North,-999,-999.0,-999.0,-999,-99.99,,,0.00,,2013-02-25 19:53:00,
2013-02-25 13:00:00,30.0,-99.9,-100.00,North,-999,-999.0,-999.0,-999,-99.99,,,0.00,,2013-02-25 20:00:00,
2013-02-25 13:52:00,30.0,-99.9,-100.00,North,-999,-999.0,-999.0,-999,-99.99,,,0.00,,2013-02-25 20:52:00,
2013-02-25 14:00:00,28.0,-99.9,-100.00,North,-999,-999.0,-999.0,-999,-99.99,,,0.00,,2013-02-25 21:00:00,
2013-02-25 14:52:00,28.0,-99.9,-100.00,North,-999,-999.0,-999.0,-999,-99.99,,,0.00,,2013-02-25 21:52:00,
2013-02-25 15:00:00,30.0,24.0,-100.00,North,-999,-999.0,-999.0,77,-99.99,,,0.00,,2013-02-25 22:00:00,
2013-02-25 15:52:00,30.0,24.0,-100.00,North,-999,-999.0,-999.0,77,-99.99,,,0.00,,2013-02-25 22:52:00,
2013-02-25 16:00:00,26.0,19.0,-100.00,North,-999,-999.0,-999.0,77,-99.99,,,0.00,,2013-02-25 23:00:00,
2013-02-25 16:52:00,26.0,19.0,-100.00,North,-999,-999.0,-999.0,77,-99.99,,,0.00,,2013-02-25 23:52:00,
2013-02-25 17:00:00,22.0,-99.9,-100.00,North,-999,-999.0,-999.0,-999,-99.99,,,0.00,,2013-02-26 00:00:00,
2013-02-25 17:52:00,22.0,-99.9,-100.00,North,-999,-999.0,-999.0,-999,-99.99,,,0.00,,2013-02-26 00:52:00,
2013-02-25 18:00:00,17.0,12.0,-100.00,North,-999,-999.0,-999.0,78,-99.99,,,-99.99,,2013-02-26 01:00:00,
2013-02-25 18:52:00,17.0,12.0,-100.00,North,-999,-999.0,-999.0,78,-99.99,,,-99.99,,2013-02-26 01:52:00,
2013-02-25 20:00:00,12.0,6.0,-100.00,North,-999,-999.0,-999.0,77,-99.99,,,0.00,,2013-02-26 03:00:00,
2013-02-25 20:52:00,12.0,6.0,-100.00,North,-999,-999.0,-999.0,77,-99.99,,,0.00,,2013-02-26 03:52:00,
2013-02-25 21:00:00,11.0,6.0,-100.00,North,-999,-999.0,-999.0,77,-99.99,,,0.00,,2013-02-26 04:00:00,
2013-02-25 21:52:00,11.0,6.0,-100.00,North,-999,-999.0,-999.0,77,-99.99,,,0.00,,2013-02-26 04:52:00,
2013-02-25 22:00:00,10.0,4.0,-100.00,North,-999,-999.0,-999.0,77,-99.99,,,0.00,,2013-02-26 05:00:00,
2013-02-25 22:52:00,10.0,4.0,-100.00,North,-999,-999.0,-999.0,77,-99.99,,,0.00,,2013-02-26 05:52:00,